Time,TemperatureF,DewpointF,PressureIn,WindDirection,WindDirectionDegrees,WindSpeedMPH,WindSpeedGustMPH,Humidity,HourlyPrecipIn,Conditions,Clouds,dailyrainin,SolarRadiationWatts/m^2,SoftwareType,DateUTC
2013-10-15 00:22:00,36.0,34.0,-100.00,WSW,240,3.0,4.0,94,0.00,,,-99.99,0.000000,,2013-10-15 06:22:00,
2013-10-15 00:32:00,36.0,34.0,-100.00,WSW,240,3.0,4.0,94,0.00,,,-99.99,0.000000,,2013-10-15 06:32:00,
2013-10-15 00:43:00,36.0,34.0,-100.00,WSW,240,3.0,4.0,94,0.00,,,-99.99,0.000000,,2013-10-15 06:43:00,
2013-10-15 04:50:00,34.0,33.0,-100.00,SE,137,2.0,3.0,96,0.00,,,-99.99,0.000000,,2013-10-15 10:50:00,
2013-10-15 05:22:00,34.0,33.0,-100.00,SE,137,2.0,3.0,96,0.00,,,-99.99,0.000000,,2013-10-15 11:22:00,
2013-10-15 05:33:00,34.0,33.0,-100.00,SE,137,2.0,3.0,96,0.00,,,-99.99,0.000000,,2013-10-15 11:33:00,
2013-10-15 05:42:00,34.0,33.0,-100.00,SE,137,2.0,3.0,96,0.00,,,-99.99,0.000000,,2013-10-15 11:42:00,
2013-10-15 09:50:00,40.0,39.0,-100.00,East,91,2.0,3.0,96,0.00,,,-99.99,120.000000,,2013-10-15 15:50:00,
2013-10-15 09:53:00,39.0,38.0,-100.00,SSE,155,2.0,4.0,96,0.00,,,-99.99,207.000000,,2013-10-15 15:53:00,
2013-10-15 10:22:00,40.0,39.0,-100.00,East,91,2.0,3.0,96,0.00,,,-99.99,120.000000,,2013-10-15 16:22:00,
2013-10-15 10:33:00,40.0,39.0,-100.00,East,91,2.0,3.0,96,0.00,,,-99.99,120.000000,,2013-10-15 16:33:00,
2013-10-15 10:42:00,40.0,39.0,-100.00,East,91,2.0,3.0,96,0.00,,,-99.99,120.000000,,2013-10-15 16:42:00,
2013-10-15 13:21:00,51.0,37.0,-100.00,East,90,4.0,8.0,59,0.00,,,-99.99,166.000000,,2013-10-15 19:21:00,
2013-10-15 14:50:00,51.0,35.0,-100.00,ESE,102,4.0,6.0,53,0.00,,,-99.99,693.000000,,2013-10-15 20:50:00,
2013-10-15 15:22:00,51.0,35.0,-100.00,ESE,102,4.0,6.0,53,0.00,,,-99.99,693.000000,,2013-10-15 21:22:00,
2013-10-15 15:34:00,51.0,35.0,-100.00,ESE,102,4.0,6.0,53,0.00,,,-99.99,693.000000,,2013-10-15 21:34:00,
2013-10-15 15:44:00,51.0,35.0,-100.00,ESE,102,4.0,6.0,53,0.00,,,-99.99,693.000000,,2013-10-15 21:44:00,
2013-10-15 16:53:00,52.0,34.0,-100.00,SE,142,5.0,8.0,51,0.00,,,-99.99,388.000000,,2013-10-15 22:53:00,
2013-10-15 17:52:00,48.0,33.0,-100.00,SSE,155,5.0,7.0,56,0.00,,,-99.99,69.000000,,2013-10-15 23:52:00,
2013-10-15 22:24:00,34.0,33.0,-100.00,SSW,196,3.0,4.0,96,0.00,,,-99.99,0.000000,,2013-10-16 04:24:00,
2013-10-15 23:52:00,32.0,31.0,-100.00,WSW,243,2.0,3.0,96,0.00,,,-99.99,0.000000,,2013-10-16 05:52:00,